04:42:06,61E333CF,2,33A4,0,0,0,1,1,0,1,0,65246,0,26684,6,0,114,2809,17,177,1,183,184,182
04:42:38,61E337CF,2,37A4,0,0,0,1,1,0,1,0,65045,0,26486,4,1,114,2809,17,177,1,183,184,182
04:43:10,61E33BCF,2,3BA4,0,0,0,1,1,0,1,0,65104,0,26542,5,0,126,2809,17,177,1,183,184,182
04:43:42,61E33FCF,2,3FA4,0,0,0,1,1,0,1,0,65061,0,26500,5,0,122,2809,17,177,1,183,184,184
04:44:14,61E343CF,2,43A4,0,0,0,1,1,0,1,0,65098,0,26535,3,0,127,2809,17,177,1,183,184,184
04:44:46,61E347CF,2,47A4,0,0,0,1,1,0,1,0,65040,0,26472,3,0,117,2815,17,177,1,183,184,184
04:45:18,61E34BCF,2,4BA4,0,0,0,1,1,0,1,0,65111,0,26539,3,0,128,2815,17,177,1,183,184,184
04:45:50,61E34FCF,2,4FA4,0,0,0,1,1,0,1,0,65183,0,26608,2,0,115,2815,17,177,1,183,184,184
04:46:22,61E353CF,2,53A4,0,0,0,1,1,0,1,0,65639,0,27061,1,0,117,2815,17,177,1,183,184,184
04:46:54,61E357CF,2,57A4,0,0,0,1,1,0,1,0,65842,0,27285,5,0,126,2815,17,177,1,183,184,184
04:47:26,61E35BCF,2,5BA4,0,0,0,1,1,0,1,0,65988,0,27426,2,0,125,2815,17,177,1,183,184,184
04:47:58,61E35FCF,2,5FA4,0,0,0,1,1,0,1,0,65724,0,27163,5,0,123,2815,17,177,1,183,184,184
04:48:30,61E363CF,2,63A4,0,0,0,1,1,0,1,0,65348,0,26782,4,0,121,2815,17,177,1,183,184,184
04:49:02,61E367CF,2,67A4,0,0,0,1,1,0,1,0,65177,0,26604,4,0,126,2816,17,177,1,183,184,184
04:49:34,61E36BCF,2,6BA4,0,0,0,1,1,0,1,0,65143,0,26565,5,0,120,2816,17,177,1,183,184,184
04:50:06,61E36FCF,2,6FA4,0,0,0,1,1,0,1,0,65020,0,26446,5,1,127,2816,17,178,1,183,184,184
04:50:38,61E373CF,2,73A4,0,0,0,1,1,0,1,0,65071,0,26495,5,0,122,2816,17,178,1,183,184,184
04:51:10,61E377CF,2,77A4,0,0,0,1,1,0,1,0,64985,0,26406,2,0,115,2816,17,178,1,183,184,184
04:51:42,61E37BCF,2,7BA4,0,0,0,1,1,0,1,0,65046,0,26466,3,0,118,2816,17,178,1,183,184,184
04:52:14,61E37FCF,2,7FA4,0,0,0,1,1,0,1,0,65108,0,26529,2,0,115,2816,17,178,1,183,184,184
04:52:46,61E383CF,2,83A4,0,0,0,1,1,0,1,0,65488,0,26909,4,0,118,2816,17,178,1,183,184,184
04:53:18,61E387CF,2,87A4,0,0,0,1,1,0,1,0,65742,0,27167,3,0,122,2817,17,178,1,183,184,184
04:53:50,61E38BCF,2,8BA4,0,0,0,1,1,0,1,0,65863,0,27287,2,0,113,2817,17,178,1,183,184,184
04:54:22,61E38FCF,2,8FA4,0,0,0,1,1,0,1,0,65993,0,27418,2,0,126,2817,17,178,1,183,184,184
04:54:54,61E393CF,2,93A4,0,0,0,1,1,0,1,0,65530,0,26957,5,0,126,2817,17,178,1,183,184,184
04:55:26,61E397CF,2,97A4,0,0,0,1,1,0,1,0,65315,0,26750,4,0,128,2817,17,178,1,183,184,184
04:55:58,61E39BCF,2,9BA4,0,0,0,1,1,0,1,0,65149,0,26583,3,0,128,2817,17,178,1,183,184,184
04:56:30,61E39FCF,2,9FA4,0,0,0,1,1,0,1,0,65021,0,26456,2,0,126,2817,17,178,1,183,184,184
04:57:02,61E3A3CF,2,A3A4,0,0,0,1,1,0,1,0,64975,0,26409,2,0,116,2817,17,178,1,183,184,184
04:57:34,61E3A7CF,2,A7A4,0,0,0,1,1,0,1,0,64994,0,26432,4,0,116,2816,17,178,1,183,184,184
04:58:06,61E3ABCF,2,ABA4,0,0,0,1,1,0,1,0,64976,0,26411,4,0,117,2816,17,178,1,183,184,184
04:58:38,61E3AFCF,2,AFA4,0,0,0,1,1,0,1,0,65101,0,26534,5,0,116,2816,17,178,1,183,184,184
04:59:10,61E3B3CF,2,B3A4,0,0,0,1,1,0,1,0,65465,0,26895,9,0,126,2816,17,178,1,183,184,184
04:59:42,61E3B7CF,2,B7A4,0,0,0,1,1,0,1,0,65724,0,27151,7,0,128,2816,17,178,1,183,184,184
05:00:14,61E3BBCF,2,BBA4,0,0,0,1,1,0,1,0,65871,0,27298,7,0,121,2816,17,178,1,183,184,184
05:00:46,61E3BFCF,2,BFA4,0,0,0,1,1,0,1,0,66008,0,27437,9,0,128,2816,17,178,1,183,184,184
05:01:18,61E3C3CF,2,C3A4,0,0,0,1,1,0,1,0,65492,0,26922,9,0,114,2816,17,178,1,183,184,184
05:01:50,61E3C7CF,2,C7A4,0,0,0,1,1,0,1,0,65324,0,26757,5,0,119,2818,17,178,1,183,184,184
05:02:22,61E3CBCF,2,CBA4,0,0,0,1,1,0,1,0,65155,0,26585,4,0,118,2818,17,178,1,183,184,184
05:02:54,61E3CFCF,2,CFA4,0,0,0,1,1,0,1,0,65046,0,26478,5,0,117,2818,17,178,1,183,184,184
05:03:26,61E3D3CF,2,D3A4,0,0,0,1,1,0,1,0,64978,0,26406,3,0,117,2818,17,178,1,183,184,184
05:03:58,61E3D7CF,2,D7A4,0,0,0,1,1,0,1,0,65006,0,26433,5,0,117,2818,17,178,1,183,184,184
05:04:30,61E3DBCF,2,DBA4,0,0,0,1,1,0,1,0,65058,0,26484,4,0,117,2818,17,178,1,183,184,184
05:05:02,61E3DFCF,2,DFA4,0,0,0,1,1,0,1,0,65009,0,26438,4,0,115,2818,17,178,1,183,184,183
05:05:34,61E3E3CF,2,E3A4,0,0,0,1,1,0,1,0,65430,0,26865,5,0,116,2818,17,178,1,183,184,183
05:06:06,61E3E7CF,2,E7A4,0,0,0,1,1,0,1,0,65656,0,27084,5,0,116,2818,17,178,1,183,184,183
05:06:38,61E3EBCF,2,EBA4,0,0,0,1,1,0,1,0,65795,0,27226,3,0,114,2818,17,178,1,183,184,183
05:07:10,61E3EFCF,2,EFA4,0,0,0,1,1,0,1,0,66019,0,27446,5,0,128,2818,17,178,1,183,184,183
05:07:42,61E3F3CF,2,F3A4,0,0,0,1,1,0,1,0,65543,0,26971,3,0,115,2818,17,178,1,183,184,183
05:08:14,61E3F7CF,2,F7A4,0,0,0,1,1,0,1,0,65282,0,26712,6,0,121,2818,17,178,1,183,184,183
05:08:46,61E3FBCF,2,FBA4,0,0,0,1,1,0,1,0,65051,0,26479,4,0,114,2818,17,178,1,183,184,183
05:09:18,61E3FFCF,2,FFA4,0,0,0,1,1,0,1,0,65031,0,26456,4,0,113,2818,17,178,1,183,184,184
05:09:50,61E403CF,2,03A4,0,0,0,1,1,0,1,0,65062,0,26489,6,0,122,2818,17,178,1,183,184,184
05:10:22,61E407CF,2,07A4,0,0,0,1,1,0,1,0,65032,0,26457,7,0,127,2819,17,178,1,183,184,184
05:10:54,61E40BCF,2,0BA4,0,0,0,1,1,0,1,0,65051,0,26477,6,0,118,2819,17,178,1,183,184,184
05:11:26,61E40FCF,2,0FA4,0,0,0,1,1,0,1,0,65152,0,26577,4,0,122,2819,17,178,1,183,184,184
05:11:58,61E413CF,2,13A4,0,0,0,1,1,0,1,0,65434,0,26855,3,0,115,2819,17,178,1,183,184,184
05:12:30,61E417CF,2,17A4,0,0,0,1,1,0,1,0,65701,0,27139,1,0,115,2819,17,178,1,183,184,184
05:13:02,61E41BCF,2,1BA4,0,0,0,1,1,0,1,0,65798,0,27233,1,0,114,2819,17,178,1,183,184,184
05:13:34,61E41FCF,2,1FA4,0,0,0,1,1,0,1,0,65992,0,27425,3,0,125,2819,17,178,1,183,184,184
05:14:06,61E423CF,2,23A4,0,0,0,1,1,0,1,0,65554,0,26985,2,0,124,2819,17,178,1,183,184,184
05:14:38,61E427CF,2,27A4,0,0,0,1,1,0,1,0,65308,0,26740,3,0,114,2818,17,178,1,183,184,184
05:15:10,61E42BCF,2,2BA4,0,0,0,1,1,0,1,0,65080,0,26511,4,0,115,2818,17,178,1,183,184,184
05:15:42,61E42FCF,2,2FA4,0,0,0,1,1,0,1,0,64968,0,26402,3,0,114,2818,17,178,1,183,184,184
05:16:14,61E433CF,2,33A4,0,0,0,1,1,0,1,0,65085,0,26515,3,0,119,2818,17,178,1,183,184,184
05:16:46,61E437CF,2,37A4,0,0,0,1,1,0,1,0,64975,0,26409,4,0,119,2818,17,178,1,183,184,184
05:17:18,61E43BCF,2,3BA4,0,0,0,1,1,0,1,0,65065,0,26501,4,0,117,2818,17,178,1,183,184,184
05:17:50,61E43FCF,2,3FA4,0,0,0,1,1,0,1,0,65228,0,26667,3,0,116,2818,17,178,1,183,184,184
05:18:22,61E443CF,2,43A4,0,0,0,1,1,0,1,0,65572,0,27010,3,0,120,2818,17,178,1,183,184,184
05:18:54,61E447CF,2,47A4,0,0,0,1,1,0,1,0,65728,0,27164,3,0,113,2818,17,178,1,183,184,184
05:19:26,61E44BCF,2,4BA4,0,0,0,1,1,0,1,0,65907,0,27340,3,0,125,2818,17,178,1,183,184,184
05:19:58,61E44FCF,2,4FA4,0,0,0,1,1,0,1,0,65931,0,27357,0,0,112,2818,17,178,1,183,184,184
05:20:30,61E453CF,2,53A4,0,0,0,1,1,0,1,0,65495,0,26929,1,0,123,2818,17,178,1,183,184,184
05:21:02,61E457CF,2,57A4,0,0,0,1,1,0,1,0,65194,0,26620,1,0,115,2818,17,178,1,183,184,184
05:21:34,61E45BCF,2,5BA4,0,0,0,1,1,0,1,0,65102,0,26553,3,0,116,2818,17,178,1,183,184,184
05:22:06,61E45FCF,2,5FA4,0,0,0,1,1,0,1,0,64982,0,26431,3,0,115,2818,17,178,1,183,184,183
05:22:38,61E463CF,2,63A4,0,0,0,1,1,0,1,0,65049,0,26494,2,0,116,2818,17,178,1,183,184,183
05:23:10,61E467CF,2,67A4,0,0,0,1,1,0,1,0,64901,0,26352,4,0,116,2819,17,178,1,183,184,183
05:23:42,61E46BCF,2,6BA4,0,0,0,1,1,0,1,0,65077,0,26525,3,0,119,2819,17,178,1,183,184,183
05:24:14,61E46FCF,2,6FA4,0,0,0,1,1,0,1,0,65235,0,26688,4,0,116,2819,17,178,1,183,184,183
05:24:46,61E473CF,2,73A4,0,0,0,1,1,0,1,0,65623,0,27073,5,0,121,2819,17,178,1,183,184,183
05:25:18,61E477CF,2,77A4,0,0,0,1,1,0,1,0,65841,0,27293,6,0,124,2819,17,178,1,183,184,183
05:25:50,61E47BCF,2,7BA4,0,0,0,1,1,0,1,0,65876,0,27325,4,0,111,2819,17,178,1,183,184,183
05:26:22,61E47FCF,2,7FA4,0,0,0,1,1,0,1,0,65784,0,27235,5,0,116,2819,17,178,1,183,184,184
05:26:54,61E483CF,2,83A4,0,0,0,1,1,0,1,0,65348,0,26800,2,0,112,2819,17,178,1,183,184,184
05:27:26,61E487CF,2,87A4,0,0,0,1,1,0,1,0,65111,0,26567,3,0,114,2819,17,178,1,183,184,184
05:27:58,61E48BCF,2,8BA4,0,0,0,1,1,0,1,0,65131,0,26583,5,0,125,2819,17,178,1,183,184,184
05:28:30,61E48FCF,2,8FA4,0,0,0,1,1,0,1,0,65030,0,26486,5,0,123,2819,17,179,1,183,184,184
05:29:02,61E493CF,2,93A4,0,0,0,1,1,0,1,0,65045,0,26499,4,0,114,2819,17,179,1,183,184,184
05:29:34,61E497CF,2,97A4,0,0,0,1,1,0,1,0,64905,0,26361,3,0,116,2819,17,179,1,183,184,184
05:30:06,61E49BCF,2,9BA4,0,0,0,1,1,0,1,0,65044,0,26498,3,0,117,2819,17,179,1,183,184,184
05:30:38,61E49FCF,2,9FA4,0,0,0,1,1,0,1,0,65415,0,26877,5,0,128,2819,17,179,1,183,184,184
05:31:10,61E4A3CF,2,A3A4,0,0,0,1,1,0,1,0,65603,0,27064,5,0,114,2819,17,179,1,183,184,184
05:31:42,61E4A7CF,2,A7A4,0,0,0,1,1,0,1,0,65871,0,27337,3,0,125,2820,17,179,1,183,184,184
05:32:14,61E4ABCF,2,ABA4,0,0,0,1,1,0,1,0,65991,0,27454,5,0,124,2820,17,179,1,183,184,184
05:32:46,61E4AFCF,2,AFA4,0,0,0,1,1,0,1,0,65537,0,27002,2,0,115,2820,17,179,1,183,184,184
05:33:18,61E4B3CF,2,B3A4,0,0,0,1,1,0,1,0,65232,0,26700,3,0,121,2820,17,179,1,183,184,184
05:33:50,61E4B7CF,2,B7A4,0,0,0,1,1,0,1,0,65142,0,26610,3,0,128,2820,17,179,1,183,184,184
05:34:22,61E4BBCF,2,BBA4,0,0,0,1,1,0,1,0,64948,0,26416,4,0,114,2820,17,179,1,183,184,184
05:34:54,61E4BFCF,2,BFA4,0,0,0,1,1,0,1,0,64975,0,26444,3,0,115,2820,17,179,1,183,184,184
05:35:26,61E4C3CF,2,C3A4,0,0,0,1,1,0,1,0,64979,0,26451,4,0,115,2820,17,179,1,183,184,184
05:35:58,61E4C7CF,2,C7A4,0,0,0,1,1,0,1,0,64958,0,26430,4,0,116,2818,17,179,1,183,184,184
05:36:30,61E4CBCF,2,CBA4,0,0,0,1,1,0,1,0,65193,0,26665,2,0,117,2818,17,179,1,183,184,184
05:37:02,61E4CFCF,2,CFA4,0,0,0,1,1,0,1,0,65409,0,26887,3,0,114,2818,17,179,1,183,184,184
05:37:34,61E4D3CF,2,D3A4,0,0,0,1,1,0,1,0,65756,0,27234,3,0,128,2818,17,179,1,183,184,184
05:38:06,61E4D7CF,2,D7A4,0,0,0,1,1,0,1,0,65819,0,27299,3,0,115,2818,17,179,1,183,184,184
05:38:38,61E4DBCF,2,DBA4,0,0,0,1,1,0,1,0,65959,0,27442,4,0,127,2818,17,179,1,183,184,184
05:39:10,61E4DFCF,2,DFA4,0,0,0,1,1,0,1,0,65466,0,26949,4,0,123,2818,17,179,1,183,184,184
05:39:42,61E4E3CF,2,E3A4,0,0,0,1,1,0,1,0,65198,0,26686,4,0,116,2818,17,179,1,183,184,184
05:40:14,61E4E7CF,2,E7A4,0,0,0,1,1,0,1,0,65067,0,26552,1,0,115,2820,17,179,1,183,184,184
05:40:46,61E4EBCF,2,EBA4,0,0,0,1,1,0,1,0,64882,0,26373,1,0,114,2820,17,179,1,183,184,184
05:41:18,61E4EFCF,2,EFA4,0,0,0,1,1,0,1,0,64992,0,26483,3,0,117,2820,17,179,1,183,184,184
05:41:50,61E4F3CF,2,F3A4,0,0,0,1,1,0,1,0,65011,0,26507,3,0,130,2820,17,179,1,183,184,184
05:42:22,61E4F7CF,2,F7A4,0,0,0,1,1,0,1,0,64986,0,26485,5,0,128,2820,17,179,1,183,184,184
05:42:54,61E4FBCF,2,FBA4,0,0,0,1,1,0,1,0,65208,0,26713,5,0,120,2820,17,179,1,183,184,184
05:43:26,61E4FFCF,2,FFA4,0,0,0,1,1,0,1,0,65530,0,27035,4,0,126,2820,17,179,1,183,184,184
05:43:58,61E503CF,2,03A4,0,0,0,1,1,0,1,0,65761,0,27270,3,0,121,2820,17,179,1,183,184,184
05:44:30,61E507CF,2,07A4,0,0,0,1,1,0,1,0,65854,0,27362,2,0,116,2820,17,179,1,183,184,184
05:45:02,61E50BCF,2,0BA4,0,0,0,1,1,0,1,0,65788,0,27278,0,0,112,2820,17,179,1,183,184,184
05:45:34,61E50FCF,2,0FA4,0,1,0,1,1,0,1,0,26874,0,26766,0,0,110,2820,17,179,1,183,184,184
05:46:06,61E513CF,2,13A4,0,0,0,1,1,0,1,0,65071,0,26590,2,0,112,2820,17,179,1,183,184,184
05:46:38,61E517CF,2,17A4,0,0,0,1,1,0,1,0,65031,0,26551,2,0,111,2820,17,179,1,183,184,184
05:47:10,61E51BCF,2,1BA4,0,0,0,1,1,0,1,0,64979,0,26498,5,0,128,2820,17,179,1,183,184,184
05:47:42,61E51FCF,2,1FA4,0,0,0,1,1,0,1,0,64998,0,26518,4,0,119,2820,17,179,1,183,184,184
05:48:14,61E523CF,2,23A4,0,0,0,1,1,0,1,0,64991,0,26513,5,0,125,2820,17,179,1,183,184,184
05:48:46,61E527CF,2,27A4,0,0,0,1,1,0,1,0,64943,0,26468,3,0,117,2819,17,179,1,183,184,184
05:49:18,61E52BCF,2,2BA4,0,0,0,1,1,0,1,0,65234,0,26760,4,0,117,2819,17,179,1,183,184,184
05:49:50,61E52FCF,2,2FA4,0,0,0,1,1,0,1,0,65582,0,27110,6,0,122,2819,17,179,1,183,184,184
05:50:22,61E533CF,2,33A4,0,0,0,1,1,0,1,0,65757,0,27286,3,0,117,2819,17,179,1,183,184,184
05:50:54,61E537CF,2,37A4,0,0,0,1,1,0,1,0,65903,0,27437,4,0,125,2819,17,179,1,183,184,184
05:51:26,61E53BCF,2,3BA4,0,0,0,1,1,0,1,0,65614,0,27147,3,0,124,2819,17,179,1,183,184,184
05:51:58,61E53FCF,2,3FA4,0,0,0,1,1,0,1,0,65217,0,26753,4,0,126,2819,17,179,1,183,184,184
05:52:30,61E543CF,2,43A4,0,0,0,1,1,0,1,0,65015,0,26556,2,0,121,2819,17,179,1,183,184,184
05:53:02,61E547CF,2,47A4,0,0,0,1,1,0,1,0,64994,0,26535,4,0,121,2819,17,179,1,183,184,184
05:53:34,61E54BCF,2,4BA4,0,0,0,1,1,0,1,0,64907,0,26452,2,0,117,2819,17,179,1,183,184,184
05:54:06,61E54FCF,2,4FA4,0,0,0,1,1,0,1,0,64938,0,26483,3,0,116,2819,17,179,1,183,184,184
05:54:38,61E553CF,2,53A4,0,0,0,1,1,0,1,0,64867,0,26416,3,0,116,2819,17,179,1,183,184,184
05:55:10,61E557CF,2,57A4,0,0,0,1,1,0,1,0,64869,0,26421,2,0,116,2819,17,179,1,183,184,184
05:55:42,61E55BCF,2,5BA4,0,0,0,1,1,0,1,0,65285,0,26841,6,0,122,2819,17,179,1,183,184,184
05:56:14,61E55FCF,2,5FA4,0,0,0,1,1,0,1,0,65561,0,27114,4,0,117,2819,17,179,1,183,184,183
05:56:46,61E563CF,2,63A4,0,0,0,1,1,0,1,0,65754,0,27312,5,0,126,2819,17,179,1,183,184,183
05:57:18,61E567CF,2,67A4,0,0,0,1,1,0,1,0,65849,0,27407,4,0,117,2819,17,179,1,183,184,183
05:57:50,61E56BCF,2,6BA4,0,0,0,1,1,0,1,0,65446,0,27002,2,0,114,2819,17,179,1,183,184,183
05:58:22,61E56FCF,2,6FA4,0,0,0,1,1,0,1,0,65094,0,26657,3,0,113,2819,17,178,1,183,184,183
05:58:54,61E573CF,2,73A4,0,0,0,1,1,0,1,0,64939,0,26507,3,0,118,2819,17,178,1,183,184,183
05:59:26,61E577CF,2,77A4,0,0,0,1,1,0,1,0,64982,0,26549,5,0,125,2819,17,178,1,183,184,183
05:59:58,61E57BCF,2,7BA4,0,0,0,1,1,0,1,0,64876,0,26444,3,0,116,2819,17,178,1,183,184,183
06:00:30,61E57FCF,2,7FA4,0,0,0,1,1,0,1,0,64854,0,26426,4,0,116,2819,17,178,1,183,184,184
06:01:02,61E583CF,2,83A4,0,0,0,1,1,0,1,0,64819,0,26390,7,0,116,2819,17,178,1,183,184,184
06:01:34,61E587CF,2,87A4,0,0,0,1,1,0,1,0,64932,0,26501,3,0,115,2819,17,178,1,183,184,184
06:02:06,61E58BCF,2,8BA4,0,0,0,1,1,0,1,0,65278,0,26853,5,0,116,2819,17,178,1,183,184,184
06:02:38,61E58FCF,2,8FA4,0,0,0,1,1,0,1,0,65555,0,27125,6,0,116,2819,17,179,1,183,184,184
06:03:10,61E593CF,2,93A4,0,0,0,1,1,0,1,0,65673,0,27248,5,0,113,2819,17,179,1,183,184,184
06:03:42,61E597CF,2,97A4,0,0,0,1,1,0,1,0,65794,0,27368,6,0,114,2819,17,179,1,183,184,184
06:04:14,61E59BCF,2,9BA4,0,0,0,1,1,0,1,0,65416,0,26995,4,0,118,2819,17,179,1,183,184,184
06:04:46,61E59FCF,2,9FA4,0,0,0,1,1,0,1,0,65130,0,26709,3,0,115,2819,17,179,1,183,184,184
06:05:18,61E5A3CF,2,A3A4,0,0,0,1,1,0,1,0,64871,0,26451,4,0,113,2819,17,179,1,183,184,184
06:05:50,61E5A7CF,2,A7A4,0,0,0,1,1,0,1,0,64846,0,26426,5,0,114,2820,17,179,1,183,184,184
06:06:22,61E5ABCF,2,ABA4,0,0,0,1,1,0,1,0,64889,0,26469,4,0,116,2820,17,179,1,183,184,184
06:06:54,61E5AFCF,2,AFA4,0,0,0,1,1,0,1,0,64811,0,26395,5,0,125,2820,17,179,1,183,184,184
06:07:26,61E5B3CF,2,B3A4,0,0,0,1,1,0,1,0,64863,0,26445,6,0,128,2820,17,179,1,183,184,184
06:07:58,61E5B7CF,2,B7A4,0,0,0,1,1,0,1,0,65130,0,26717,5,0,120,2820,17,179,1,183,184,184
06:08:30,61E5BBCF,2,BBA4,0,0,0,1,1,0,1,0,65307,0,26891,5,1,115,2820,17,179,1,183,184,184
06:09:02,61E5BFCF,2,BFA4,0,0,0,1,1,0,1,0,65608,0,27194,5,0,115,2820,17,179,1,183,184,184
06:09:34,61E5C3CF,2,C3A4,0,0,0,1,1,0,1,0,65729,0,27312,5,0,113,2820,17,179,1,183,184,184
06:10:06,61E5C7CF,2,C7A4,0,0,0,1,1,0,1,0,65814,0,27396,8,0,121,2820,17,179,1,183,184,184
06:10:38,61E5CBCF,2,CBA4,0,0,0,1,1,0,1,0,65300,0,26883,7,0,113,2820,17,179,1,183,184,184
06:11:10,61E5CFCF,2,CFA4,0,0,0,1,1,0,1,0,65065,0,26647,7,0,115,2820,17,179,1,183,184,184
06:11:42,61E5D3CF,2,D3A4,0,0,0,1,1,0,1,0,65013,0,26592,9,0,122,2820,17,179,1,183,184,184
06:12:14,61E5D7CF,2,D7A4,0,0,0,1,1,0,1,0,64790,0,26367,7,0,114,2820,17,179,1,183,184,184
06:12:46,61E5DBCF,2,DBA4,0,0,0,1,1,0,1,0,64909,0,26484,7,0,114,2820,17,179,1,183,184,184
06:13:18,61E5DFCF,2,DFA4,0,0,0,1,1,0,1,0,64796,0,26369,9,0,116,2820,17,179,1,183,184,184
06:13:50,61E5E3CF,2,E3A4,0,0,0,1,1,0,1,0,64860,0,26431,9,0,117,2820,17,179,1,183,184,184
06:14:22,61E5E7CF,2,E7A4,0,0,0,1,1,0,1,0,65099,0,26667,28,0,126,2820,17,179,1,183,184,184
06:14:54,61E5EBCF,2,EBA4,0,0,0,1,1,0,1,0,65508,0,27074,27,0,125,2820,17,179,1,183,184,184
06:15:26,61E5EFCF,2,EFA4,0,0,0,1,1,0,1,0,65716,0,27281,33,0,126,2820,17,179,1,183,184,184
06:15:58,61E5F3CF,2,F3A4,0,0,0,1,1,0,1,0,65853,0,27415,29,0,118,2820,17,179,1,183,184,184
06:16:30,61E5F7CF,2,F7A4,0,0,0,1,1,0,1,0,65683,0,27244,23,0,112,2820,17,179,1,183,184,184
06:17:02,61E5FBCF,2,FBA4,0,0,0,1,1,0,1,0,65195,0,26753,24,0,114,2820,17,179,1,183,184,184
06:17:34,61E5FFCF,2,FFA4,0,0,0,1,1,0,1,0,64950,0,26507,10,0,112,2820,17,179,1,183,184,184
06:18:06,61E603CF,2,03A4,0,0,0,1,1,0,1,0,65016,0,26570,9,0,117,2820,17,179,1,183,184,184
06:18:38,61E607CF,2,07A4,0,0,0,1,1,0,1,0,64866,0,26422,30,0,123,2821,17,179,1,183,184,184
06:19:10,61E60BCF,2,0BA4,0,0,0,1,1,0,1,0,65004,0,26556,21,0,126,2821,17,179,1,183,184,184
06:19:42,61E60FCF,2,0FA4,0,0,0,1,1,0,1,0,64901,0,26451,15,0,120,2821,17,179,1,183,184,184
06:20:14,61E613CF,2,13A4,0,0,0,1,1,0,1,0,64914,0,26462,9,1,117,2821,17,179,1,183,184,184
06:20:46,61E617CF,2,17A4,0,0,0,1,1,0,1,0,65317,0,26864,24,1,116,2821,17,179,1,183,184,184
06:21:18,61E61BCF,2,1BA4,0,0,0,1,1,0,1,0,65529,0,27073,12,0,115,2821,17,179,1,183,184,184
06:21:50,61E61FCF,2,1FA4,0,0,0,1,1,0,1,0,65728,0,27272,14,0,116,2821,17,179,1,183,184,184
06:22:22,61E623CF,2,23A4,0,0,0,1,1,0,1,0,65893,0,27440,13,0,120,2821,17,179,1,183,184,184
06:22:54,61E627CF,2,27A4,0,0,0,1,1,0,1,0,65459,0,27004,9,0,116,2821,17,179,1,183,184,184
06:23:26,61E62BCF,2,2BA4,0,0,0,1,1,0,1,0,65098,0,26642,7,0,113,2821,17,179,1,183,184,184
06:23:58,61E62FCF,2,2FA4,0,0,0,1,1,0,1,0,64968,0,26509,10,0,126,2821,17,179,1,183,184,184
06:24:30,61E633CF,2,33A4,0,0,0,1,1,0,1,0,64911,0,26451,17,0,125,2821,17,179,1,183,184,184
06:25:02,61E637CF,2,37A4,0,0,0,1,1,0,1,0,64945,0,26484,24,0,126,2821,17,179,1,183,184,184
06:25:34,61E63BCF,2,3BA4,0,0,0,1,1,0,1,0,64950,0,26489,12,1,124,2821,17,179,1,183,184,184
06:26:06,61E63FCF,2,3FA4,0,0,0,1,1,0,1,0,64926,0,26464,7,0,117,2821,17,179,1,183,184,184
06:26:38,61E643CF,2,43A4,0,0,0,1,1,0,1,0,64992,0,26531,7,0,117,2821,17,179,1,183,184,184
06:27:10,61E647CF,2,47A4,0,0,0,1,1,0,1,0,65387,0,26928,8,0,129,2820,17,179,1,183,184,184
06:27:42,61E64BCF,2,4BA4,0,0,0,1,1,0,1,0,65613,0,27159,6,0,126,2820,17,179,1,183,184,184
06:28:14,61E64FCF,2,4FA4,0,0,0,1,1,0,1,0,65708,0,27255,4,0,115,2820,17,178,1,183,184,184
06:28:46,61E653CF,2,53A4,0,0,0,1,1,0,1,0,65860,0,27409,3,0,117,2820,17,178,1,183,184,184
06:29:18,61E657CF,2,57A4,0,0,0,1,1,0,1,0,65416,0,26970,5,0,118,2820,17,178,1,183,184,184
06:29:50,61E65BCF,2,5BA4,0,0,0,1,1,0,1,0,65146,0,26700,5,0,115,2820,17,178,1,183,184,184
06:30:22,61E65FCF,2,5FA4,0,0,0,1,1,0,1,0,64930,0,26488,4,0,114,2820,17,178,1,183,184,183
06:30:54,61E663CF,2,63A4,0,0,0,1,1,0,1,0,64843,0,26402,4,1,114,2820,17,178,1,183,184,183
06:31:26,61E667CF,2,67A4,0,0,0,1,1,0,1,0,64923,0,26489,2,0,116,2819,17,178,1,183,184,183
06:31:58,61E66BCF,2,6BA4,0,0,0,1,1,0,1,0,64879,0,26450,5,0,122,2819,17,178,1,183,184,183
06:32:30,61E66FCF,2,6FA4,0,0,0,1,1,0,1,0,64958,0,26533,4,0,125,2819,17,178,1,183,184,183
06:33:02,61E673CF,2,73A4,0,0,0,1,1,0,1,0,65059,0,26635,2,0,115,2819,17,178,1,183,184,183
06:33:34,61E677CF,2,77A4,0,0,0,1,1,0,1,0,65443,0,27015,0,0,116,2819,17,178,1,183,184,183
06:34:06,61E67BCF,2,7BA4,0,0,0,1,1,0,1,0,65667,0,27251,5,0,120,2819,17,178,1,183,184,183
06:34:38,61E67FCF,2,7FA4,0,0,0,1,1,0,1,0,65745,0,27323,3,0,113,2819,17,178,1,183,184,183
06:35:10,61E683CF,2,83A4,0,0,0,1,1,0,1,0,65728,0,27305,1,0,111,2819,17,178,1,183,184,183
06:35:42,61E687CF,2,87A4,0,0,0,1,1,0,1,0,65244,0,26856,2,0,112,2819,17,178,1,183,184,183
06:36:14,61E68BCF,2,8BA4,0,0,0,1,1,0,1,0,64970,0,26584,3,0,112,2819,17,178,1,183,184,183
06:36:46,61E68FCF,2,8FA4,0,0,0,1,1,0,1,0,64976,0,26589,2,0,117,2819,17,178,1,183,184,183
06:37:18,61E693CF,2,93A4,0,0,0,1,1,0,1,0,64775,0,26401,1,0,115,2819,17,178,1,183,184,183
06:37:50,61E697CF,2,97A4,0,0,0,1,1,0,1,0,64895,0,26523,3,0,114,2819,17,178,1,183,184,183
06:38:22,61E69BCF,2,9BA4,0,0,0,1,1,0,1,0,64721,0,26347,2,0,116,2819,17,178,1,183,184,183
06:38:54,61E69FCF,2,9FA4,0,0,0,1,1,0,1,0,64907,0,26536,3,0,120,2819,17,178,1,183,184,184
06:39:26,61E6A3CF,2,A3A4,0,0,0,1,1,0,1,0,65096,0,26728,4,0,117,2819,17,178,1,183,184,184
06:39:58,61E6A7CF,2,A7A4,0,0,0,1,1,0,1,0,65482,0,27116,7,0,125,2819,17,178,1,183,184,184
06:40:30,61E6ABCF,2,ABA4,0,0,0,1,1,0,1,0,65650,0,27285,5,0,117,2819,17,178,1,183,184,184
06:41:02,61E6AFCF,2,AFA4,0,0,0,1,1,0,1,0,65757,0,27396,6,0,116,2819,17,179,1,183,184,184
06:41:34,61E6B3CF,2,B3A4,0,0,0,1,1,0,1,0,65496,0,27132,8,0,120,2819,17,179,1,183,184,184
06:42:06,61E6B7CF,2,B7A4,0,0,0,1,1,0,1,0,65092,0,26728,6,0,116,2819,17,179,1,183,184,184
06:42:38,61E6BBCF,2,BBA4,0,0,0,1,1,0,1,0,64881,0,26518,8,0,115,2819,17,179,1,183,184,184
06:43:10,61E6BFCF,2,BFA4,0,0,0,1,1,0,1,0,64886,0,26525,11,0,123,2819,17,179,1,183,184,184
06:43:42,61E6C3CF,2,C3A4,0,0,0,1,1,0,1,0,64802,0,26439,6,0,116,2819,17,179,1,183,184,184
06:44:14,61E6C7CF,2,C7A4,0,0,0,1,1,0,1,0,64818,0,26454,6,0,114,2820,17,179,1,183,184,184
06:44:46,61E6CBCF,2,CBA4,0,0,0,1,1,0,1,0,64731,0,26366,8,0,116,2820,17,179,1,183,184,184
06:45:18,61E6CFCF,2,CFA4,0,0,0,1,1,0,1,0,64835,0,26473,7,0,118,2820,17,179,1,183,184,184
06:45:50,61E6D3CF,2,D3A4,0,0,0,1,1,0,1,0,65188,0,26826,6,0,113,2820,17,179,1,183,184,184
06:46:22,61E6D7CF,2,D7A4,0,0,0,1,1,0,1,0,65427,0,27066,8,0,115,2820,17,179,1,183,184,184
06:46:54,61E6DBCF,2,DBA4,0,0,0,1,1,0,1,0,65674,0,27313,8,0,119,2820,17,179,1,183,184,184
06:47:26,61E6DFCF,2,DFA4,0,0,0,1,1,0,1,0,65813,0,27451,11,0,125,2820,17,179,1,183,184,184
06:47:58,61E6E3CF,2,E3A4,0,0,0,1,1,0,1,0,65403,0,27041,8,0,118,2820,17,179,1,183,184,184
06:48:30,61E6E7CF,2,E7A4,0,0,0,1,1,0,1,0,65027,0,26662,10,0,113,2819,17,179,1,183,184,184
06:49:02,61E6EBCF,2,EBA4,0,0,0,1,1,0,1,0,64864,0,26499,8,0,113,2819,17,179,1,183,184,184
06:49:34,61E6EFCF,2,EFA4,0,0,0,1,1,0,1,0,64792,0,26424,7,0,114,2819,17,179,1,183,184,184
06:50:06,61E6F3CF,2,F3A4,0,0,0,1,1,0,1,0,64834,0,26468,10,0,118,2819,17,179,1,183,184,184
06:50:38,61E6F7CF,2,F7A4,0,0,0,1,1,0,1,0,64824,0,26457,13,0,122,2819,17,179,1,183,184,184
06:51:10,61E6FBCF,2,FBA4,0,0,0,1,1,0,1,0,64763,0,26392,9,0,116,2819,17,179,1,183,184,184
06:51:42,61E6FFCF,2,FFA4,0,0,0,1,1,0,1,0,64928,0,26561,9,0,125,2819,17,179,1,183,184,184
06:52:14,61E703CF,2,03A4,0,0,0,1,1,0,1,0,65198,0,26829,7,0,114,2819,17,179,1,183,184,184
06:52:46,61E707CF,2,07A4,0,0,0,1,1,0,1,0,65430,0,27059,8,0,115,2819,17,179,1,183,184,184
06:53:18,61E70BCF,2,0BA4,0,0,0,1,1,0,1,0,65652,0,27283,6,0,116,2819,17,179,1,183,184,184
06:53:50,61E70FCF,2,0FA4,0,0,0,1,1,0,1,0,65797,0,27430,7,0,118,2819,17,179,1,183,184,184
06:54:22,61E713CF,2,13A4,0,0,0,1,1,0,1,0,65451,0,27084,6,0,126,2819,17,179,1,183,184,184
06:54:54,61E717CF,2,17A4,0,0,0,1,1,0,1,0,65021,0,26658,5,0,113,2819,17,179,1,183,184,184
06:55:26,61E71BCF,2,1BA4,0,0,0,1,1,0,1,0,64898,0,26537,6,1,123,2819,17,179,1,183,184,184
06:55:58,61E71FCF,2,1FA4,0,0,0,1,1,0,1,0,64810,0,26447,6,0,115,2819,17,179,1,183,184,184
06:56:30,61E723CF,2,23A4,0,0,0,1,1,0,1,0,64807,0,26447,5,0,116,2819,17,179,1,183,184,184
06:57:02,61E727CF,2,27A4,0,0,0,1,1,0,1,0,64805,0,26447,4,0,114,2819,17,179,1,183,184,184
06:57:34,61E72BCF,2,2BA4,0,0,0,1,1,0,1,0,64764,0,26408,4,0,117,2819,17,179,1,183,184,184
06:58:06,61E72FCF,2,2FA4,0,0,0,1,1,0,1,0,64847,0,26489,7,0,122,2819,17,179,1,183,184,184
06:58:38,61E733CF,2,33A4,0,0,0,1,1,0,1,0,65265,0,26908,11,0,125,2819,17,179,1,183,184,184
06:59:10,61E737CF,2,37A4,0,0,0,1,1,0,1,0,65414,0,27055,6,0,114,2819,17,179,1,183,184,184
06:59:42,61E73BCF,2,3BA4,0,0,0,1,1,0,1,0,65681,0,27323,19,0,127,2819,17,179,1,183,184,184
07:00:14,61E73FCF,2,3FA4,0,0,0,1,1,0,1,0,65773,0,27415,11,0,117,2819,17,179,1,183,184,184
07:00:46,61E743CF,2,43A4,0,0,0,1,1,0,1,0,65340,0,26979,6,0,113,2819,17,179,1,183,184,184
07:01:18,61E747CF,2,47A4,0,0,0,1,1,0,1,0,65086,0,26728,14,0,127,2821,17,179,1,183,184,184
07:01:50,61E74BCF,2,4BA4,0,0,0,1,1,0,1,0,64954,0,26596,9,0,129,2821,17,179,1,183,184,184
07:02:22,61E74FCF,2,4FA4,0,0,0,1,1,0,1,0,64738,0,26382,6,0,114,2821,17,179,1,183,184,184
07:02:54,61E753CF,2,53A4,0,0,0,1,1,0,1,0,64802,0,26445,7,0,116,2821,17,179,1,183,184,184
07:03:26,61E757CF,2,57A4,0,0,0,1,1,0,1,0,64812,0,26454,6,0,116,2821,17,179,1,183,184,184